Regional Weather Roundup
Issued by NWS

Home | Current Version | Previous Version | Text Only | Print | Product List | Glossary On
Versions: 1 2 3 4 5 6 7 8 9 10 11 12 13 14 15 16 17 18 19 20 21 22 23 24 25 26 27 28 29 30 31 32 33 34 35 36 37 38 39 40 41 42 43 44 45 46 47 48 49 50
000
ASUS44 KMEG 310910
RWRTN
TENNESSEE HOURLY STATE WEATHER ROUNDUP
NATIONAL WEATHER SERVICE MEMPHIS TN
400 AM CDT FRI JUL 31 2015

TNZ002-004-019-021-049-052-054-088>092-311000-
WEST TENNESSEE

CITY           SKY/WX    TMP DP  RH WIND       PRES   REMARKS
MEMPHIS INTL   PTCLDY    74  63  68 N7        30.07S
NWS MEMPHIS      N/A     69 N/A N/A MISG        N/A
JACKSON        PTCLDY    66  62  87 CALM      30.08R
DYERSBURG        N/A    N/A N/A N/A MISG        N/A
PARIS          CLEAR     63  61  94 CALM      30.09S
LEXINGTON      CLEAR     64  64 100 N3        30.06S
$$

TNZ008-025-027-028-033-062-065-066-311000-
NORTH MIDDLE TENNESSEE

CITY           SKY/WX    TMP DP  RH WIND       PRES   REMARKS
NASHVILLE      CLEAR     69  63  81 N3        30.07S
CLARKSVILLE    CLEAR     65  63  93 W3        30.07S
SMYRNA         CLEAR     62  60  93 CALM      30.08R
CROSSVILLE     CLEAR     65  57  75 N3        30.11S
$$

TNZ061-075-076-078-094-096-097-311000-
SOUTH MIDDLE TENNESSEE

CITY           SKY/WX    TMP DP  RH WIND       PRES   REMARKS
FAYETTEVILLE   CLEAR     64  59  82 NE7       30.06R
TULLAHOMA      CLEAR     66  57  72 CALM      30.07S
WINCHESTER     CLEAR     64  61  88 CALM      30.06S
MCMINNVILLE    CLEAR     64  64 100 NE3       30.07S
COLUMBIA       CLEAR     64  64 100 CALM      30.05S
SHELBYVILLE    CLEAR     63  63 100 CALM      30.07S
$$

TNZ017-018-042-046-047-311000-
NORTHEAST TENNESSEE

CITY           SKY/WX    TMP DP  RH WIND       PRES   REMARKS
TRI CITIES     PTCLDY    63  60  90 CALM      30.07R
ELIZABETHTON   SUNNY     61  59  94 CALM      30.07S
$$

TNZ012-013-036-069-073-074-311000-
CENTRAL EAST TENNESSEE

CITY           SKY/WX    TMP DP  RH WIND       PRES   REMARKS
KNOXVILLE      CLEAR     70  62  76 N7        30.04R
OAK RIDGE      CLEAR     68  61  78 CALM      30.06S
GATLINBURG     SUNNY     68  64  88 CALM      30.04S
$$

TNZ083-085-099-311000-
SOUTHEAST TENNESSEE

CITY           SKY/WX    TMP DP  RH WIND       PRES   REMARKS
CHATTANOOGA    CLEAR     73  60  63 N8        30.02R
$$

SKY/WX REPORTED AS FAIR MEANS FEW OR NO CLOUDS BELOW
12 THOUSAND FEET.



USA.gov is the U.S. government's official web portal to all federal, state and local government web resources and services.